Aérodrome :
LOGIN :

S'inscrire | Disclaimer

   EN    FR    IT 

 










Légende :    VFR   VFR Marginal   IFR   IFR Intensif   IFR Très Intensif
Visi : 
Plafond : 
>= 8 km
>= 3000ft
5 à 8 km
1000 à 3000 ft
1500m à 5 km
500 à 1000 ft
800 à 1500m
200 à 500 ft
< 800m
< 200 ft
Symboles :   Orages  Brouillard  Fortes neiges  Fortes précipitations  Vent > 20 kt
SIGMETs :   Divers  Orages  Givrage  Turbulence  Onde Orograph.  Cendres Volcan.







- Altitude de l'aérodrome : 1202 ft
- Code IATA : IGS


ETSI - Ingolstadt

DERNIER METAR :
  • 121720Z 23004KT 9999 FEW022 BKN120 02/M01 Q1014 BLU

METARs EXPIRÉS :
  • 121620Z 24005KT 9999 FEW022 SCT050 BKN110 02/M01 Q1013 BLU FCST CANCEL
  • 121520Z 22006KT 9999 FEW022 SCT030 BKN050 03/M01 Q1013 BLU BLU TEMPO WHT

TAF TAF ETSI
Valide du 12 à 15h jusqu'au 13 à 00h UTC


121415Z 1215/1224 26007KT 9999 NSW SCT020 BKN040
TEMPO 1215/1218 27010G20KT 6000 -SHSNRA SCT010 BKN020 BKN180 CANCEL 1620
Pas de NOTAMs connus pour ce terrain.



MET'MAP, la Météo Aéronautique d'un coup d'oeil ! - Copyright ORBIFLY Décembre 2007 - Disclaimer

ORBIFLY MET'MAP TEAM :

Programmation & Développement : Alexandra Zaïnal
Conception & Développement : Baudouin d'Aumeries
Co-Programmation & Développement : Marc-Olivier Méhu
Soutien technique & logistique : Manuel Goepfert

Contact : metmap@orbifly.com




SOURCES & CREDITS :

   NOAA